QPF
0.00 0.00 0.00 0.00 0.00 0.00 0.00 0.00 0.02 0.01 0.00 0.00 0.00 0.00 0.00 0.00 0.01 0.02 0.01 0.00 0.00 0.00 0.01 0.01 0.00 0.00 0.00 0.00 0.00 0.00 0.00 0.00 0.00 0.00 0.00 0.00 0.00 0.00 0.00 0.01 0.01 0.00 0.00 0.00
0.00 0.00 0.00 0.00 0.00 0.00 0.00 0.01 0.01 0.01 0.00 0.03 0.01 0.01 0.00 0.00 0.00 0.00 0.00 0.00 0.01 0.02 0.02 0.01 0.00 0.00 0.00 0.00 0.00 0.00 0.00 0.00 0.00 0.00 0.01 0.01 0.00 0.00 0.00 0.00 0.00 0.00 0.00 0.00
0.00 0.00 0.00 0.00 0.00 0.00 0.00 0.00 0.00 0.01 0.00 0.00 0.02 0.04 0.00 0.00 0.00 0.00 0.00 0.00 0.01 0.05 0.05 0.01 0.00 0.00 0.00 0.00 0.00 0.00 0.00 0.00 0.00 0.01 0.00 0.00 0.00 0.00 0.01 0.01 0.00 0.00 0.00 0.00
0.00 0.00 0.00 0.00 0.00 0.00 0.00 0.00 0.00 0.00 0.00 0.00 0.00 0.04 0.01 0.00 0.00 0.00 0.00 0.00 0.00 0.02 0.02 0.01 0.01 0.00 0.00 0.00 0.00 0.00 0.02 0.02 0.00 0.03 0.06 0.03 0.01 0.00 0.00 0.00 0.00 0.00 0.00 0.00
0.00 0.00 0.00 0.00 0.00 0.00 0.00 0.00 0.00 0.00 0.00 0.00 0.00 0.00 0.03 0.00 0.00 0.00 0.00 0.00 0.00 0.01 0.01 0.02 0.02 0.00 0.00 0.00 0.00 0.00 0.02 0.04 0.01 0.06 0.08 0.05 0.00 0.00 0.00 0.00 0.01 0.01 0.00 0.00
0.00 0.00 0.00 0.00 0.00 0.00 0.00 0.00 0.00 0.00 0.00 0.00 0.00 0.00 0.04 0.01 0.00 0.00 0.00 0.00 0.00 0.00 0.00 0.02 0.00 0.00 0.00 0.00 0.00 0.00 0.00 0.02 0.03 0.01 0.03 0.04 0.03 0.01 0.02 0.03 0.02 0.00 0.00 0.00
0.00 0.00 0.00 0.00 0.00 0.00 0.00 0.00 0.00 0.00 0.00 0.00 0.00 0.00 0.00 0.00 0.00 0.00 0.00 0.00 0.00 0.00 0.00 0.01 0.01 0.01 0.00 0.00 0.00 0.00 0.00 0.02 0.03 0.00 0.00 0.02 0.06 0.06 0.03 0.02 0.01 0.00 0.00 0.00
0.00 0.00 0.00 0.00 0.00 0.00 0.00 0.00 0.00 0.01 0.00 0.01 0.00 0.00 0.00 0.00 0.00 0.00 0.00 0.00 0.00 0.00 0.00 0.00 0.01 0.01 0.01 0.01 0.00 0.00 0.00 0.00 0.02 0.01 0.01 0.01 0.03 0.04 0.04 0.00 0.00 0.00 0.00 0.00
0.00 0.00 0.00 0.00 0.00 0.00 0.00 0.00 0.00 0.00 0.00 0.00 0.00 0.00 0.00 0.00 0.00 0.00 0.00 0.00 0.00 0.00 0.00 0.00 0.00 0.00 0.01 0.03 0.00 0.00 0.00 0.01 0.01 0.01 0.03 0.01 0.01 0.01 0.01 0.01 0.00 0.00 0.00 0.00
0.00 0.00 0.00 0.00 0.00 0.00 0.00 0.00 0.00 0.00 0.00 0.00 0.00 0.00 0.00 0.00 0.00 0.00 0.00 0.00 0.01 0.00 0.00 0.00 0.00 0.00 0.03 0.03 0.00 0.00 0.00 0.00 0.00 0.00 0.00 0.00 0.00 0.00 0.01 0.01 0.01 0.00 0.00 0.01
0.00 0.00 0.00 0.00 0.00 0.00 0.00 0.00 0.00 0.00 0.00 0.00 0.05 0.01 0.00 0.00 0.00 0.00 0.00 0.00 0.00 0.00 0.00 0.00 0.00 0.00 0.00 0.01 0.00 0.00 0.00 0.00 0.00 0.00 0.00 0.00 0.00 0.00 0.00 0.01 0.00 0.00 0.00 0.00
0.00 0.00 0.00 0.00 0.00 0.00 0.00 0.00 0.00 0.00 0.01 0.00 0.00 0.00 0.02 0.03 0.01 0.00 0.00 0.00 0.00 0.00 0.00 0.00 0.00 0.00 0.00 0.00 0.00 0.00 0.00 0.00 0.00 0.00 0.00 0.00 0.00 0.00 0.00 0.00 0.00 0.00 0.00 0.00
0.00 0.00 0.00 0.00 0.00 0.00 0.00 0.00 0.00 0.00 0.00 0.00 0.00 0.00 0.02 0.02 0.00 0.00 0.00 0.00 0.00 0.02 0.00 0.00 0.00 0.00 0.00 0.00 0.00 0.01 0.00 0.00 0.00 0.00 0.00 0.00 0.00 0.01 0.01 0.02 0.00 0.01 0.02 0.02
0.00 0.00 0.00 0.00 0.00 0.00 0.00 0.00 0.00 0.00 0.00 0.00 0.00 0.00 0.00 0.02 0.02 0.01 0.01 0.00 0.00 0.00 0.01 0.02 0.00 0.01 0.00 0.00 0.00 0.02 0.02 0.00 0.00 0.00 0.00 0.01 0.02 0.03 0.01 0.02 0.02 0.01 0.05 0.05
0.00 0.00 0.00 0.00 0.00 0.00 0.00 0.00 0.00 0.00 0.00 0.00 0.00 0.00 0.00 0.04 0.05 0.00 0.01 0.01 0.00 0.00 0.00 0.01 0.00 0.00 0.00 0.00 0.00 0.00 0.00 0.00 0.00 0.00 0.00 0.01 0.04 0.07 0.11 0.14 0.10 0.06 0.08 0.07
0.00 0.00 0.00 0.00 0.00 0.00 0.00 0.00 0.00 0.00 0.00 0.00 0.00 0.01 0.00 0.04 0.07 0.00 0.00 0.00 0.00 0.00 0.00 0.00 0.00 0.00 0.01 0.00 0.01 0.01 0.00 0.00 0.00 0.00 0.00 0.01 0.01 0.01 0.01 0.04 0.06 0.05 0.04 0.06
0.00 0.00 0.00 0.00 0.00 0.00 0.00 0.00 0.00 0.00 0.00 0.00 0.00 0.02 0.08 0.07 0.08 0.05 0.00 0.00 0.00 0.00 0.03 0.01 0.00 0.00 0.00 0.00 0.01 0.03 0.00 0.00 0.01 0.05 0.05 0.05 0.05 0.05 0.07 0.03 0.03 0.03 0.04 0.08
0.00 0.00 0.00 0.00 0.00 0.00 0.00 0.00 0.00 0.00 0.00 0.00 0.00 0.03 0.01 0.10 0.08 0.05 0.00 0.00 0.00 0.00 0.03 0.02 0.03 0.01 0.00 0.01 0.02 0.00 0.00 0.03 0.09 0.10 0.08 0.05 0.02 0.06 0.05 0.08 0.05 0.16 0.13 0.09
0.00 0.00 0.00 0.00 0.00 0.00 0.00 0.00 0.00 0.00 0.00 0.00 0.00 0.00 0.04 0.05 0.08 0.07 0.01 0.01 0.00 0.00 0.03 0.04 0.03 0.02 0.02 0.02 0.03 0.09 0.08 0.11 0.08 0.14 0.11 0.10 0.10 0.10 0.08 0.07 0.11 0.14 0.15 0.24
0.00 0.00 0.00 0.00 0.00 0.00 0.00 0.00 0.00 0.00 0.00 0.00 0.00 0.01 0.04 0.05 0.11 0.13 0.06 0.02 0.00 0.00 0.03 0.03 0.03 0.10 0.03 0.06 0.13 0.21 0.18 0.22 0.21 0.17 0.17 0.17 0.08 0.02 0.00 0.01 0.03 0.06 0.13 0.36
0.00 0.00 0.00 0.00 0.00 0.00 0.00 0.00 0.00 0.00 0.00 0.00 0.00 0.03 0.05 0.10 0.14 0.06 0.04 0.00 0.00 0.00 0.01 0.03 0.01 0.04 0.07 0.11 0.04 0.02 0.09 0.20 0.23 0.19 0.18 0.14 0.08 0.01 0.00 0.01 0.00 0.01 0.01 0.07
0.00 0.00 0.00 0.00 0.00 0.00 0.00 0.00 0.00 0.00 0.00 0.00 0.00 0.01 0.13 0.19 0.04 0.01 0.00 0.00 0.00 0.01 0.04 0.03 0.01 0.03 0.03 0.10 0.07 0.03 0.02 0.03 0.09 0.05 0.02 0.02 0.01 0.02 0.02 0.03 0.03 0.01 0.00 0.00
0.00 0.00 0.00 0.00 0.00 0.00 0.00 0.00 0.00 0.00 0.00 0.00 0.00 0.02 0.10 0.13 0.07 0.01 0.00 0.00 0.00 0.02 0.04 0.06 0.02 0.02 0.05 0.05 0.16 0.09 0.05 0.10 0.09 0.05 0.07 0.11 0.09 0.03 0.03 0.00 0.00 0.00 0.00 0.00
0.00 0.00 0.00 0.00 0.00 0.00 0.00 0.00 0.00 0.00 0.00 0.00 0.00 0.07 0.10 0.08 0.06 0.01 0.00 0.02 0.04 0.10 0.10 0.08 0.05 0.05 0.08 0.13 0.16 0.05 0.04 0.05 0.03 0.08 0.12 0.08 0.03 0.01 0.00 0.00 0.00 0.00 0.00 0.00
0.00 0.00 0.00 0.00 0.00 0.00 0.00 0.00 0.00 0.00 0.00 0.00 0.00 0.06 0.08 0.03 0.01 0.00 0.00 0.00 0.06 0.08 0.16 0.14 0.06 0.02 0.00 0.03 0.02 0.01 0.03 0.04 0.02 0.01 0.01 0.00 0.00 0.00 0.00 0.00 0.00 0.00 0.00 0.00
0.00 0.00 0.00 0.00 0.00 0.00 0.00 0.00 0.00 0.00 0.00 0.00 0.01 0.13 0.18 0.15 0.04 0.02 0.00 0.00 0.01 0.04 0.10 0.17 0.11 0.03 0.02 0.06 0.08 0.06 0.12 0.08 0.05 0.02 0.00 0.00 0.00 0.00 0.00 0.00 0.00 0.00 0.00 0.00
MSLP
1003.76 1003.29 1002.29 1001.41 1002.01 1003.42 1004.82 1006.65 1007.72 1008.44 1009.30 1009.93 1011.10 1012.24 1012.86 1013.27 1013.96 1012.84 1012.44 1011.89 1011.35 1010.67 1010.93 1010.87 1011.38 1011.80 1012.26 1013.03 1013.91 1014.52 1015.07 1015.35 1015.75 1015.86 1016.15 1016.41 1016.41 1016.30 1017.22 1018.49 1018.42 1017.58 1017.53 1017.69
1002.93 1002.32 1001.45 1000.95 1000.81 1002.62 1004.03 1005.34 1007.53 1006.89 1007.63 1008.07 1009.72 1011.14 1012.02 1012.94 1012.81 1012.45 1012.24 1012.00 1012.16 1012.72 1011.55 1011.25 1011.16 1011.75 1012.53 1013.19 1014.14 1015.05 1015.38 1015.62 1015.88 1016.05 1016.43 1016.62 1016.27 1016.36 1016.88 1017.01 1017.23 1017.50 1017.92 1018.17
1001.48 1000.63 1000.85 1000.57 1001.09 1001.80 1002.00 1003.67 1005.32 1005.10 1005.51 1006.09 1008.09 1009.95 1011.23 1011.52 1011.67 1011.84 1011.73 1011.84 1012.65 1013.12 1013.16 1011.66 1011.59 1011.88 1012.43 1013.28 1013.83 1014.85 1015.42 1015.78 1015.98 1016.12 1016.31 1016.59 1016.66 1017.00 1017.55 1017.20 1017.13 1017.34 1017.82 1018.14
1001.44 1000.76 1001.19 1001.35 1001.44 1001.41 1001.49 1002.64 1002.89 1003.25 1003.57 1004.76 1005.38 1007.39 1009.50 1010.27 1010.84 1010.78 1010.96 1011.28 1011.71 1013.22 1012.87 1011.83 1011.36 1011.22 1012.12 1013.10 1013.58 1014.56 1015.29 1015.84 1016.05 1016.32 1016.59 1016.52 1016.69 1016.76 1016.89 1016.82 1016.86 1017.41 1017.53 1017.66
1000.94 1001.04 1001.69 1001.44 1001.05 1000.94 1001.06 1001.85 1002.36 1002.77 1002.76 1003.15 1003.84 1004.96 1006.65 1008.96 1009.51 1008.92 1009.47 1009.91 1011.10 1012.34 1013.11 1013.00 1012.36 1010.98 1011.75 1012.33 1013.33 1014.11 1015.13 1015.72 1015.98 1016.36 1016.73 1016.94 1016.57 1016.30 1016.32 1016.88 1017.20 1017.44 1017.70 1017.66
1001.51 1001.58 1001.55 1001.19 1001.01 1001.12 1001.27 1001.46 1002.14 1002.26 1002.60 1002.94 1002.54 1003.78 1005.45 1007.19 1007.06 1007.40 1008.18 1009.46 1010.19 1010.89 1011.37 1012.27 1012.18 1011.41 1011.09 1011.93 1012.52 1013.51 1014.62 1015.32 1015.72 1016.15 1016.64 1016.81 1016.66 1016.79 1016.93 1016.76 1017.32 1017.34 1017.55 1017.84
1001.16 1001.05 1001.39 1001.40 1001.20 1001.35 1001.74 1001.84 1001.82 1002.38 1003.29 1004.72 1003.22 1003.01 1003.52 1004.25 1004.81 1005.38 1006.75 1008.03 1009.27 1009.88 1010.51 1011.28 1010.89 1010.80 1010.71 1011.44 1012.12 1012.87 1014.05 1014.82 1015.44 1015.74 1016.10 1016.50 1017.24 1017.51 1017.58 1017.11 1017.42 1017.14 1016.99 1017.14
1000.01 1000.31 1000.80 1001.10 1001.48 1000.78 1001.04 1001.59 1001.43 1003.35 1005.14 1007.13 1005.04 1003.53 1002.65 1002.29 1003.15 1004.53 1006.31 1007.16 1007.87 1008.39 1008.89 1009.56 1009.49 1009.96 1010.62 1011.37 1011.85 1012.22 1013.67 1014.40 1014.99 1015.34 1015.70 1016.23 1017.33 1017.42 1017.72 1016.86 1016.10 1016.56 1017.04 1016.95
1000.73 1000.18 1000.61 1000.74 1001.02 1001.12 1001.00 1001.15 1001.64 1002.69 1005.26 1005.99 1004.76 1004.65 1003.28 1002.60 1003.43 1004.76 1005.89 1006.68 1007.29 1007.44 1007.69 1008.20 1008.64 1010.11 1011.31 1012.67 1011.46 1012.01 1012.89 1013.83 1014.45 1014.92 1015.34 1015.80 1016.78 1017.07 1017.18 1016.88 1016.16 1016.20 1016.58 1017.11
1001.78 1001.23 1000.65 1000.45 1001.18 1001.19 1001.04 1002.12 1002.33 1002.52 1005.34 1005.72 1005.95 1005.98 1007.28 1005.17 1004.67 1005.42 1006.03 1006.29 1006.91 1007.04 1006.66 1007.29 1007.92 1009.83 1011.15 1011.21 1010.94 1011.62 1012.30 1013.22 1013.89 1014.35 1014.93 1015.34 1015.65 1016.12 1016.32 1016.41 1016.38 1016.31 1016.59 1017.32
1002.57 1001.99 1001.12 1000.86 1000.79 1000.70 1000.73 1001.83 1003.01 1004.21 1007.08 1006.68 1006.69 1007.53 1008.04 1007.82 1007.56 1005.45 1005.79 1006.07 1005.90 1006.21 1006.23 1006.65 1007.48 1008.66 1009.37 1010.67 1011.00 1010.69 1011.62 1012.49 1013.19 1013.72 1014.37 1014.69 1015.16 1015.60 1015.85 1016.16 1016.37 1016.51 1016.63 1016.83
1003.08 1002.72 1001.68 1001.00 1000.45 1000.56 1001.37 1002.12 1002.75 1003.86 1007.75 1008.47 1007.75 1007.96 1007.77 1008.65 1006.95 1005.56 1005.00 1005.59 1005.44 1006.33 1006.54 1006.35 1007.05 1008.07 1008.91 1009.42 1009.39 1009.86 1010.85 1011.66 1012.33 1012.90 1013.58 1014.18 1014.85 1015.21 1015.56 1015.88 1016.08 1016.37 1016.53 1016.64
1004.43 1003.16 1002.54 1001.53 1001.17 1001.03 1001.44 1001.85 1002.55 1003.79 1005.68 1007.54 1008.14 1007.84 1007.59 1006.00 1005.93 1004.86 1005.49 1006.05 1006.57 1006.91 1007.23 1007.52 1007.79 1007.46 1007.90 1009.09 1009.55 1009.53 1010.57 1011.03 1011.58 1012.20 1012.97 1013.76 1014.34 1014.97 1015.16 1015.49 1015.72 1015.86 1016.15 1016.42
1005.61 1004.67 1003.74 1002.87 1002.52 1002.39 1002.32 1002.28 1002.21 1003.56 1004.77 1006.06 1006.71 1006.85 1008.01 1007.54 1006.61 1005.32 1006.08 1006.50 1007.21 1007.22 1007.75 1007.82 1008.47 1009.50 1007.86 1008.59 1009.30 1009.89 1011.60 1010.82 1011.03 1011.61 1012.43 1013.25 1013.99 1014.40 1014.75 1015.08 1015.50 1015.67 1016.05 1016.42
1005.46 1004.79 1004.39 1003.80 1003.27 1002.74 1002.44 1002.20 1002.57 1003.28 1004.22 1005.59 1006.31 1007.34 1007.94 1008.96 1007.59 1006.23 1006.71 1006.90 1007.49 1007.49 1007.20 1007.98 1008.93 1008.82 1008.94 1009.21 1010.00 1009.99 1010.39 1010.25 1010.61 1011.20 1011.92 1012.70 1013.46 1014.06 1014.62 1015.03 1015.34 1015.57 1015.92 1016.24
1004.96 1004.90 1004.94 1004.52 1003.83 1003.20 1002.66 1002.35 1002.22 1002.54 1003.38 1004.41 1005.44 1006.82 1008.60 1009.96 1008.59 1007.85 1007.13 1007.12 1007.34 1007.91 1007.97 1008.06 1008.31 1009.07 1010.21 1008.71 1009.60 1009.19 1009.61 1010.05 1010.27 1010.88 1011.54 1012.23 1013.11 1013.78 1014.30 1014.81 1015.11 1015.43 1015.71 1016.07
1004.77 1004.96 1005.24 1004.84 1004.36 1003.65 1002.75 1001.84 1001.91 1001.96 1002.09 1003.17 1003.86 1006.11 1009.07 1009.25 1010.14 1009.15 1008.91 1008.60 1008.10 1008.35 1008.29 1008.61 1008.40 1008.96 1009.36 1009.40 1010.79 1010.73 1009.87 1009.79 1010.41 1010.76 1011.25 1012.01 1012.71 1013.45 1014.08 1014.37 1014.70 1014.97 1015.38 1015.79
1005.06 1005.57 1005.92 1005.43 1004.91 1003.97 1002.90 1002.44 1002.39 1002.49 1002.53 1003.21 1004.41 1006.43 1008.01 1009.58 1010.79 1010.48 1009.54 1009.39 1009.23 1009.23 1009.35 1008.69 1008.31 1007.79 1007.57 1008.62 1008.78 1009.05 1009.01 1009.38 1010.20 1010.71 1011.49 1012.20 1012.71 1013.29 1013.84 1014.30 1014.52 1014.93 1015.24 1015.50
1004.93 1005.57 1005.90 1005.61 1004.75 1003.73 1003.09 1003.72 1003.58 1003.50 1003.17 1003.07 1004.65 1006.70 1007.92 1007.93 1009.60 1010.47 1010.03 1009.89 1009.45 1010.13 1010.00 1009.52 1008.86 1008.61 1007.91 1007.93 1008.68 1008.80 1008.72 1009.33 1009.94 1010.64 1011.42 1012.28 1012.85 1013.28 1013.74 1014.20 1014.56 1014.97 1015.38 1015.54
1005.18 1005.62 1006.46 1006.00 1005.35 1004.50 1004.08 1004.69 1004.83 1004.40 1004.04 1004.26 1004.97 1007.64 1009.72 1010.11 1011.05 1011.11 1011.22 1010.90 1010.48 1010.57 1010.49 1009.75 1009.12 1008.77 1008.67 1008.71 1008.85 1009.70 1010.83 1010.10 1010.87 1011.24 1011.77 1012.51 1013.24 1013.59 1014.04 1014.54 1015.08 1015.27 1015.68 1016.29
1005.19 1005.73 1005.72 1005.41 1005.37 1004.73 1005.07 1005.33 1005.41 1005.35 1005.89 1005.41 1005.93 1008.38 1009.52 1010.63 1011.43 1011.30 1011.71 1011.45 1011.78 1011.53 1010.90 1010.35 1009.63 1009.22 1008.99 1009.06 1009.68 1010.63 1010.50 1011.10 1012.01 1012.04 1012.55 1013.24 1013.71 1014.22 1014.64 1015.02 1015.36 1015.51 1016.25 1017.18
1005.05 1005.33 1005.04 1004.91 1005.71 1005.83 1005.69 1005.41 1005.84 1006.79 1006.17 1006.45 1006.70 1007.59 1009.80 1010.35 1011.35 1011.59 1011.71 1012.55 1012.34 1012.10 1011.56 1011.22 1010.76 1009.98 1009.92 1010.05 1010.40 1011.12 1012.00 1012.06 1012.89 1012.91 1013.22 1014.23 1014.47 1015.34 1015.42 1015.61 1016.39 1016.91 1017.18 1018.04
1005.04 1005.19 1005.23 1005.55 1006.64 1006.25 1005.77 1005.42 1005.52 1006.22 1006.35 1006.29 1006.70 1008.13 1009.37 1010.70 1011.14 1011.94 1012.41 1012.52 1012.71 1012.51 1012.11 1011.78 1011.56 1010.99 1011.28 1011.45 1011.10 1011.72 1012.19 1012.52 1013.22 1013.91 1014.49 1014.85 1015.23 1015.77 1015.86 1016.35 1016.90 1017.60 1018.17 1018.83
1005.86 1004.84 1005.04 1005.41 1005.29 1005.23 1005.22 1005.24 1005.22 1005.68 1005.80 1005.94 1006.29 1007.98 1008.87 1009.70 1010.49 1011.36 1012.08 1012.38 1012.76 1012.94 1012.67 1012.35 1012.08 1012.01 1012.29 1012.44 1012.59 1012.49 1012.65 1013.14 1014.05 1014.78 1015.17 1015.23 1015.87 1016.23 1016.71 1017.10 1017.69 1018.36 1019.10 1019.58
1005.02 1005.32 1005.20 1005.17 1004.77 1004.98 1005.17 1005.62 1005.49 1005.65 1006.08 1006.05 1006.59 1008.25 1009.64 1010.09 1010.12 1010.77 1011.19 1012.12 1012.62 1013.02 1013.16 1013.20 1013.13 1013.39 1013.38 1013.51 1013.84 1013.32 1013.56 1014.11 1014.74 1015.31 1015.81 1016.21 1016.61 1017.06 1017.68 1018.54 1018.90 1018.96 1019.86 1019.98
1005.06 1004.21 1004.24 1004.27 1004.56 1004.92 1005.11 1005.35 1005.84 1006.30 1006.53 1006.71 1007.36 1009.43 1010.09 1010.66 1010.72 1011.29 1010.95 1011.30 1012.25 1012.98 1013.49 1013.60 1013.32 1013.88 1014.15 1014.34 1014.48 1014.34 1014.53 1014.85 1015.31 1015.71 1016.47 1016.89 1017.09 1017.71 1018.24 1018.69 1019.52 1020.04 1020.11 1020.32
Thickness
5788 5775 5774 5799 5803 5794 5782 5759 5740 5758 5760 5754 5746 5738 5739 5739 5736 5745 5753 5763 5773 5781 5782 5790 5789 5788 5785 5781 5775 5773 5771 5773 5772 5773 5770 5770 5772 5777 5765 5755 5760 5766 5769 5773
5781 5771 5801 5818 5824 5793 5783 5760 5730 5769 5771 5768 5752 5739 5744 5736 5741 5752 5755 5762 5764 5755 5773 5782 5788 5787 5782 5778 5774 5769 5770 5772 5772 5773 5773 5773 5778 5778 5775 5772 5771 5770 5765 5765
5781 5802 5813 5812 5804 5795 5804 5776 5751 5765 5779 5784 5760 5738 5739 5744 5751 5757 5761 5764 5760 5750 5756 5773 5782 5783 5784 5777 5775 5772 5771 5771 5772 5775 5775 5774 5776 5773 5767 5773 5776 5773 5771 5768
5788 5813 5796 5792 5788 5800 5787 5796 5793 5784 5783 5751 5788 5737 5742 5748 5745 5756 5764 5764 5764 5746 5754 5776 5782 5789 5786 5781 5781 5776 5772 5770 5772 5774 5772 5773 5771 5769 5775 5777 5781 5774 5775 5775
5787 5789 5781 5779 5791 5807 5794 5805 5795 5791 5787 5788 5785 5772 5762 5757 5747 5767 5767 5771 5769 5756 5757 5759 5770 5790 5790 5791 5783 5780 5774 5772 5773 5773 5773 5772 5775 5780 5783 5779 5778 5779 5774 5776
5787 5804 5795 5793 5803 5803 5807 5798 5792 5797 5788 5760 5796 5783 5754 5751 5763 5773 5779 5768 5770 5770 5772 5768 5770 5786 5794 5795 5793 5786 5778 5774 5776 5774 5773 5773 5776 5778 5777 5780 5776 5779 5780 5777
5784 5786 5796 5800 5783 5796 5789 5777 5753 5747 5741 5720 5790 5784 5772 5782 5794 5794 5783 5772 5775 5780 5778 5772 5782 5786 5795 5793 5793 5792 5783 5777 5776 5777 5777 5777 5771 5768 5768 5777 5777 5781 5784 5785
5781 5762 5784 5797 5782 5784 5784 5780 5763 5697 5699 5687 5751 5757 5780 5813 5815 5807 5791 5784 5787 5787 5788 5789 5792 5796 5791 5792 5793 5795 5784 5780 5779 5780 5779 5779 5770 5768 5769 5779 5793 5789 5784 5785
5768 5774 5799 5800 5799 5794 5780 5773 5797 5766 5735 5731 5757 5764 5798 5811 5801 5796 5787 5785 5782 5793 5796 5798 5800 5790 5773 5775 5794 5794 5790 5785 5783 5783 5782 5782 5772 5771 5771 5781 5792 5793 5792 5788
5772 5755 5792 5798 5796 5796 5786 5786 5762 5778 5708 5721 5731 5738 5705 5761 5778 5779 5778 5782 5781 5789 5802 5802 5804 5789 5784 5787 5799 5799 5796 5789 5787 5787 5785 5784 5785 5783 5785 5787 5788 5790 5789 5785
5774 5766 5774 5790 5778 5773 5783 5770 5768 5761 5714 5721 5723 5717 5747 5733 5739 5774 5778 5779 5789 5789 5799 5805 5804 5797 5796 5781 5794 5804 5799 5794 5791 5789 5787 5787 5786 5786 5787 5786 5786 5787 5787 5788
5770 5760 5751 5772 5804 5806 5788 5772 5774 5746 5682 5709 5730 5727 5747 5727 5741 5781 5787 5784 5795 5792 5792 5804 5803 5800 5796 5800 5805 5807 5802 5799 5796 5794 5792 5789 5787 5786 5785 5784 5786 5787 5787 5789
5756 5753 5739 5756 5779 5791 5773 5778 5777 5766 5742 5704 5697 5727 5746 5771 5774 5791 5780 5778 5779 5781 5785 5790 5789 5800 5802 5799 5797 5804 5800 5800 5800 5798 5793 5790 5787 5784 5785 5786 5787 5789 5787 5787
5748 5742 5737 5729 5742 5760 5750 5763 5776 5759 5735 5725 5729 5746 5736 5751 5756 5778 5774 5775 5768 5773 5769 5779 5778 5773 5798 5801 5791 5788 5782 5797 5801 5799 5794 5789 5786 5787 5788 5788 5786 5787 5785 5783
5742 5726 5739 5746 5752 5755 5753 5758 5759 5750 5746 5725 5734 5731 5735 5716 5732 5764 5763 5770 5765 5766 5771 5770 5770 5778 5788 5791 5782 5789 5789 5799 5803 5799 5795 5790 5789 5788 5786 5785 5785 5785 5784 5783
5745 5721 5729 5725 5745 5749 5743 5755 5760 5760 5756 5752 5720 5728 5735 5716 5696 5747 5762 5762 5763 5759 5763 5763 5770 5769 5760 5782 5778 5789 5791 5793 5802 5798 5794 5792 5788 5786 5784 5783 5783 5783 5782 5781
5731 5724 5713 5704 5730 5734 5726 5753 5756 5760 5772 5762 5752 5738 5709 5720 5710 5728 5738 5746 5753 5753 5756 5758 5765 5763 5767 5771 5762 5760 5788 5796 5792 5795 5794 5790 5787 5783 5781 5782 5782 5781 5780 5779
5720 5713 5710 5700 5714 5687 5740 5763 5758 5748 5754 5759 5753 5732 5717 5714 5704 5714 5736 5738 5742 5746 5744 5752 5763 5774 5782 5777 5779 5785 5795 5794 5788 5790 5785 5783 5781 5779 5778 5777 5776 5775 5776 5776
5732 5713 5698 5692 5701 5726 5740 5728 5730 5724 5731 5760 5745 5724 5720 5726 5712 5706 5726 5733 5740 5735 5742 5748 5754 5757 5773 5781 5776 5779 5786 5785 5787 5783 5779 5774 5773 5772 5772 5770 5769 5770 5768 5768
5724 5719 5696 5695 5683 5681 5720 5726 5734 5736 5711 5740 5740 5710 5686 5694 5680 5691 5709 5720 5728 5729 5735 5746 5753 5753 5757 5768 5773 5767 5754 5769 5767 5769 5767 5765 5763 5763 5761 5760 5759 5761 5760 5755
5701 5698 5691 5697 5690 5710 5718 5722 5725 5689 5692 5729 5728 5695 5697 5685 5683 5699 5702 5713 5716 5720 5727 5737 5747 5748 5752 5759 5757 5749 5738 5739 5749 5753 5753 5751 5751 5750 5752 5751 5751 5752 5747 5740
5697 5689 5696 5706 5682 5672 5717 5715 5691 5692 5714 5715 5720 5711 5680 5689 5690 5691 5700 5698 5706 5710 5718 5723 5729 5741 5744 5744 5743 5738 5730 5734 5728 5735 5739 5736 5738 5734 5736 5737 5735 5731 5729 5723
5690 5702 5694 5694 5670 5699 5714 5714 5717 5707 5706 5710 5713 5697 5690 5678 5673 5678 5685 5693 5696 5700 5708 5715 5720 5729 5729 5729 5733 5729 5728 5727 5723 5721 5720 5724 5725 5721 5725 5723 5721 5717 5715 5709
5698 5717 5699 5696 5705 5708 5711 5716 5716 5712 5712 5717 5716 5695 5694 5688 5686 5687 5685 5684 5689 5690 5696 5704 5710 5714 5715 5716 5717 5721 5723 5720 5713 5709 5707 5711 5703 5706 5710 5711 5711 5706 5702 5699
5700 5702 5694 5694 5707 5707 5707 5703 5707 5708 5707 5712 5713 5686 5682 5679 5686 5686 5687 5680 5682 5684 5688 5692 5695 5696 5697 5700 5698 5710 5712 5708 5705 5702 5699 5696 5695 5697 5697 5694 5693 5697 5690 5690
5698 5703 5693 5690 5702 5698 5697 5704 5702 5696 5696 5702 5695 5665 5669 5645 5675 5672 5683 5686 5680 5678 5680 5681 5686 5685 5688 5688 5691 5698 5699 5698 5695 5692 5689 5689 5691 5688 5687 5688 5682 5676 5678 5677